Location: Columbia
(38.9520°N, 92.3340°W)
Time: 12:28:07
(UTC-05:00)

FENGYUN 3A - Visible Passes

Search period start: 16 September 2014 00:00
Search period end: 26 September 2014 00:00
Orbit: 820 x 834 km, 98.5° (Epoch: 16 September)

Date Brightness Start Highest point End Pass type
(mag) Time Alt. Az. Time Alt. Az. Time Alt. Az.
16 Sep 5.6 20:18:31 11° ENE 20:19:17 11° ENE 20:20:48 10° NE visible
16 Sep 4.2 22:00:02 52° N 22:00:02 52° N 22:04:04 10° NNW visible
17 Sep 4.2 21:41:13 47° NNE 21:41:13 47° NNE 21:45:17 10° N visible
17 Sep 6.3 23:22:43 13° WNW 23:22:43 13° WNW 23:23:56 10° NW visible
18 Sep 4.5 21:22:24 36° NE 21:22:24 36° NE 21:26:22 10° N visible
18 Sep 6.0 23:03:55 19° WNW 23:03:55 19° WNW 23:06:04 10° NW visible
19 Sep 4.8 21:03:35 26° NE 21:03:35 26° NE 21:07:17 10° N visible
19 Sep 5.6 22:45:06 26° NW 22:45:06 26° NW 22:47:49 10° NNW visible
20 Sep 5.2 20:44:46 19° ENE 20:44:46 19° ENE 20:47:59 10° NNE visible
20 Sep 5.1 22:26:17 33° NW 22:26:17 33° NW 22:29:22 10° NNW visible
21 Sep 5.5 20:25:57 13° ENE 20:25:57 13° ENE 20:28:14 10° NNE visible
21 Sep 4.8 22:07:28 38° NNW 22:07:28 38° NNW 22:10:45 10° NNW visible
22 Sep 4.6 21:48:39 38° N 21:48:39 38° N 21:52:00 10° N visible
23 Sep 4.7 21:29:51 33° NNE 21:29:51 33° NNE 21:33:08 10° N visible
23 Sep 6.3 23:11:21 14° NW 23:11:21 14° NW 23:12:29 10° NW visible
24 Sep 4.9 21:11:02 26° NE 21:11:02 26° NE 21:14:07 10° N visible
24 Sep 6.0 22:52:33 19° NW 22:52:33 19° NW 22:54:21 10° NW visible
25 Sep 5.2 20:52:13 20° NE 20:52:13 20° NE 20:54:55 10° NNE visible
25 Sep 5.7 22:33:44 24° NW 22:33:44 24° NW 22:35:58 10° NNW visible
